| time (UTC) | temp C | wind direction | speed KPH | gust KPH | rain 1hr cm | rain 24hr cm | rain mn cm | humidity % | barometer mb |
| 20260503030712 | 25 | 70 | 4.8 | 25.7 | 0.00 | 0.00 | 0.00 | 74 | 1014.8 |
| 20260503030212 | 25 | 110 | 3.2 | 25.7 | 0.00 | 0.00 | 0.00 | 73 | 1015.0 |
| 20260503025712 | 25 | 117 | 9.7 | 24.1 | 0.00 | 0.00 | 0.00 | 73 | 1014.9 |
| 20260503024941 | 25 | 88 | 17.7 | 24.1 | 0.00 | 0.00 | 0.00 | 72 | 1015.0 |
| 20260503024442 | 25 | 69 | 14.5 | 24.1 | 0.00 | 0.00 | 0.00 | 72 | 1015.1 |
| 20260503023940 | 25 | 128 | 14.5 | 24.1 | 0.00 | 0.00 | 0.00 | 72 | 1015.0 |
| 20260503023441 | 25 | 102 | 4.8 | 24.1 | 0.00 | 0.00 | 0.00 | 73 | 1014.9 |
| 20260503022942 | 25 | 99 | 11.3 | 24.1 | 0.00 | 0.00 | 0.00 | 73 | 1014.9 |
| 20260503022440 | 25 | 90 | 12.9 | 22.5 | 0.00 | 0.00 | 0.00 | 74 | 1014.7 |
| 20260503021941 | 25 | 91 | 12.9 | 22.5 | 0.00 | 0.00 | 0.00 | 73 | 1014.9 |
| 20260503021442 | 25 | 98 | 8.0 | 24.1 | 0.00 | 0.00 | 0.00 | 73 | 1014.5 |
| 20260503020941 | 25 | 132 | 6.4 | 24.1 | 0.00 | 0.00 | 0.00 | 74 | 1014.9 |
| 20260503020441 | 25 | 120 | 6.4 | 27.4 | 0.00 | 0.00 | 0.00 | 74 | 1014.8 |
| 20260503020211 | 25 | 96 | 8.0 | 27.4 | 0.00 | 0.00 | 0.00 | 74 | 1014.5 |
| 20260503015711 | 25 | 96 | 9.7 | 27.4 | 0.00 | 0.00 | 0.00 | 74 | 1014.7 |
| 20260503014941 | 25 | 76 | 12.9 | 27.4 | 0.00 | 0.00 | 0.00 | 74 | 1014.5 |
| 20260503014711 | 25 | 78 | 8.0 | 27.4 | 0.00 | 0.00 | 0.00 | 75 | 1014.7 |
| 20260503013929 | 25 | 91 | 6.4 | 32.2 | 0.00 | 0.00 | 0.00 | 74 | 1014.7 |
| 20260503013428 | 25 | 72 | 11.3 | 32.2 | 0.00 | 0.00 | 0.00 | 72 | 1014.3 |
| 20260503012929 | 25 | 93 | 14.5 | 32.2 | 0.00 | 0.00 | 0.00 | 71 | 1014.5 |
| 20260503012428 | 25 | 78 | 12.9 | 32.2 | 0.00 | 0.00 | 0.00 | 74 | 1014.4 |
| 20260503011928 | 25 | 104 | 14.5 | 32.2 | 0.00 | 0.00 | 0.00 | 75 | 1014.5 |
| 20260503011428 | 25 | 110 | 6.4 | 32.2 | 0.00 | 0.00 | 0.00 | 75 | 1014.5 |
| 20260503010928 | 25 | 127 | 17.7 | 33.8 | 0.00 | 0.00 | 0.00 | 74 | 1014.6 |
| 20260503010647 | 25 | 69 | 17.7 | 33.8 | 0.00 | 0.00 | 0.00 | 73 | 1014.6 |
| 20260503010148 | 25 | 76 | 12.9 | 30.6 | 0.00 | 0.00 | 0.00 | 72 | 1014.8 |
| 20260503005648 | 25 | 90 | 12.9 | 30.6 | 0.00 | 0.00 | 0.00 | 74 | 1014.6 |
| 20260503004917 | 25 | 107 | 9.7 | 27.4 | 0.00 | 0.00 | 0.00 | 74 | 1015.0 |
| 20260503004417 | 25 | 68 | 16.1 | 27.4 | 0.00 | 0.00 | 0.00 | 73 | 1015.0 |
| 20260503003917 | 25 | 118 | 12.9 | 25.7 | 0.00 | 0.00 | 0.00 | 73 | 1014.8 |
| 20260503003417 | 26 | 136 | 12.9 | 25.7 | 0.00 | 0.00 | 0.00 | 71 | 1014.9 |
| 20260503002906 | 26 | 81 | 8.0 | 30.6 | 0.00 | 0.00 | 0.00 | 71 | 1014.7 |
| 20260503002637 | 26 | 54 | 9.7 | 30.6 | 0.00 | 0.00 | 0.00 | 71 | 1015.1 |
| 20260503001906 | 26 | 75 | 16.1 | 32.2 | 0.00 | 0.00 | 0.00 | 71 | 1015.2 |
| 20260503001405 | 26 | 111 | 14.5 | 32.2 | 0.00 | 0.00 | 0.00 | 73 | 1015.2 |
| 20260503001136 | 26 | 72 | 9.7 | 32.2 | 0.00 | 0.00 | 0.00 | 71 | 1015.1 |
| 20260503000407 | 26 | 48 | 16.1 | 27.4 | 0.00 | 0.00 | 0.00 | 72 | 1015.2 |
| 20260502235905 | 26 | 109 | 9.7 | 27.4 | 0.00 | 0.00 | 0.00 | 73 | 1015.3 |
| 20260502235353 | 26 | 85 | 14.5 | 27.4 | 0.00 | 0.00 | 0.00 | 71 | 1015.4 |
| 20260502234852 | 26 | 120 | 11.3 | 25.7 | 0.00 | 0.00 | 0.00 | 71 | 1015.4 |
| 20260502234624 | 26 | 68 | 17.7 | 25.7 | 0.00 | 0.00 | 0.00 | 70 | 1015.8 |
| 20260502233854 | 26 | 70 | 14.5 | 27.4 | 0.00 | 0.00 | 0.00 | 71 | 1015.8 |
| 20260502233353 | 26 | 66 | 16.1 | 25.7 | 0.00 | 0.00 | 0.00 | 70 | 1016.0 |
| 20260502232854 | 26 | 90 | 6.4 | 25.7 | 0.00 | 0.00 | 0.00 | 71 | 1016.1 |
| 20260502232352 | 26 | 87 | 6.4 | 25.7 | 0.00 | 0.00 | 0.00 | 71 | 1015.9 |
| 20260502231852 | 26 | 101 | 11.3 | 27.4 | 0.00 | 0.00 | 0.00 | 72 | 1016.2 |
| 20260502231353 | 26 | 60 | 17.7 | 30.6 | 0.00 | 0.00 | 0.00 | 71 | 1016.2 |
| 20260502230855 | 26 | 90 | 12.9 | 30.6 | 0.00 | 0.00 | 0.00 | 69 | 1016.1 |
| 20260502230353 | 26 | 88 | 14.5 | 27.4 | 0.00 | 0.00 | 0.00 | 68 | 1016.5 |
| 20260502225852 | 26 | 113 | 16.1 | 25.7 | 0.00 | 0.00 | 0.00 | 69 | 1016.5 |
| 20260502225359 | 26 | 128 | 17.7 | 30.6 | 0.00 | 0.00 | 0.00 | 70 | 1016.6 |
| 20260502225353 | 26 | 92 | 12.9 | 30.6 | 0.00 | 0.00 | 0.00 | 70 | 1016.4 |
| 20260502224623 | 26 | 63 | 9.7 | 27.4 | 0.00 | 0.00 | 0.00 | 72 | 1016.7 |
| 20260502223854 | 26 | 75 | 12.9 | 30.6 | 0.00 | 0.00 | 0.00 | 71 | 1016.8 |
| 20260502223354 | 26 | 92 | 9.7 | 30.6 | 0.00 | 0.00 | 0.00 | 71 | 1016.8 |
| 20260502222853 | 26 | 97 | 11.3 | 24.1 | 0.00 | 0.00 | 0.00 | 68 | 1016.8 |
| 20260502222401 | 26 | 59 | 9.7 | 30.6 | 0.00 | 0.00 | 0.00 | 67 | 1017.1 |
| 20260502222352 | 26 | 76 | 17.7 | 25.7 | 0.00 | 0.00 | 0.00 | 68 | 1017.1 |
| 20260502221853 | 26 | 119 | 17.7 | 30.6 | 0.00 | 0.00 | 0.00 | 65 | 1017.0 |
| 20260502220852 | 26 | 100 | 22.5 | 32.2 | 0.00 | 0.00 | 0.00 | 66 | 1017.4 |
| 20260502220623 | 26 | 81 | 14.5 | 32.2 | 0.00 | 0.00 | 0.00 | 68 | 1017.3 |
| 20260502220123 | 26 | 60 | 16.1 | 27.4 | 0.00 | 0.00 | 0.00 | 67 | 1017.2 |
| 20260502215352 | 26 | 57 | 14.5 | 27.4 | 0.00 | 0.00 | 0.00 | 68 | 1017.2 |
| 20260502214851 | 26 | 63 | 16.1 | 27.4 | 0.00 | 0.00 | 0.00 | 68 | 1017.3 |
| 20260502214623 | 26 | 98 | 6.4 | 32.2 | 0.00 | 0.00 | 0.00 | 67 | 1017.2 |
| 20260502213852 | 26 | 93 | 12.9 | 32.2 | 0.00 | 0.00 | 0.00 | 67 | 1017.4 |
| 20260502213622 | 26 | 55 | 12.9 | 25.7 | 0.00 | 0.00 | 0.00 | 66 | 1017.1 |
| 20260502212852 | 26 | 82 | 20.9 | 27.4 | 0.00 | 0.00 | 0.00 | 66 | 1017.5 |
| 20260502212352 | 26 | 117 | 11.3 | 32.2 | 0.00 | 0.00 | 0.00 | 67 | 1017.5 |
| 20260502211851 | 26 | 124 | 20.9 | 32.2 | 0.00 | 0.00 | 0.00 | 68 | 1017.6 |
| 20260502211353 | 26 | 101 | 17.7 | 30.6 | 0.00 | 0.00 | 0.00 | 68 | 1017.5 |
| 20260502211122 | 26 | 61 | 9.7 | 30.6 | 0.00 | 0.00 | 0.00 | 69 | 1017.4 |
| 20260502210622 | 26 | 104 | 11.3 | 30.6 | 0.00 | 0.00 | 0.00 | 69 | 1017.4 |
| 20260502205851 | 26 | 73 | 8.0 | 27.4 | 0.00 | 0.00 | 0.00 | 70 | 1017.4 |
| 20260502205352 | 26 | 118 | 17.7 | 27.4 | 0.00 | 0.00 | 0.00 | 66 | 1017.4 |
| 20260502204852 | 26 | 108 | 14.5 | 30.6 | 0.00 | 0.00 | 0.00 | 66 | 1017.3 |
| 20260502204352 | 26 | 117 | 11.3 | 30.6 | 0.00 | 0.00 | 0.00 | 68 | 1017.6 |
| 20260502203852 | 26 | 65 | 12.9 | 25.7 | 0.00 | 0.00 | 0.00 | 69 | 1017.3 |
| 20260502203352 | 26 | 118 | 8.0 | 32.2 | 0.00 | 0.00 | 0.00 | 69 | 1017.3 |
| 20260502202852 | 26 | 128 | 9.7 | 37.0 | 0.00 | 0.00 | 0.00 | 69 | 1017.3 |
| 20260502202351 | 26 | 83 | 11.3 | 37.0 | 0.00 | 0.00 | 0.00 | 69 | 1017.5 |
| 20260502201851 | 26 | 102 | 14.5 | 27.4 | 0.00 | 0.00 | 0.00 | 70 | 1017.3 |
| 20260502201351 | 26 | 89 | 17.7 | 27.4 | 0.00 | 0.00 | 0.00 | 69 | 1017.6 |
| 20260502200851 | 26 | 97 | 9.7 | 27.4 | 0.00 | 0.00 | 0.00 | 70 | 1017.4 |
| 20260502200352 | 25 | 97 | 11.3 | 33.8 | 0.00 | 0.00 | 0.00 | 70 | 1017.5 |
| 20260502200123 | 25 | 115 | 20.9 | 33.8 | 0.00 | 0.00 | 0.00 | 71 | 1017.3 |
| 20260502195351 | 25 | 98 | 11.3 | 30.6 | 0.00 | 0.00 | 0.00 | 73 | 1017.4 |
| 20260502195124 | 25 | 126 | 11.3 | 30.6 | 0.00 | 0.00 | 0.00 | 70 | 1017.6 |
| 20260502194354 | 25 | 112 | 12.9 | 33.8 | 0.00 | 0.00 | 0.00 | 70 | 1017.4 |
| 20260502193852 | 26 | 113 | 16.1 | 33.8 | 0.00 | 0.00 | 0.00 | 69 | 1017.6 |
| 20260502193352 | 25 | 80 | 14.5 | 27.4 | 0.00 | 0.00 | 0.00 | 70 | 1017.5 |
| 20260502192851 | 26 | 108 | 6.4 | 25.7 | 0.00 | 0.00 | 0.00 | 71 | 1017.3 |
| 20260502192351 | 25 | 118 | 12.9 | 25.7 | 0.00 | 0.00 | 0.00 | 71 | 1017.4 |
| 20260502191852 | 25 | 60 | 9.7 | 25.7 | 0.00 | 0.00 | 0.00 | 71 | 1017.3 |
| 20260502191352 | 26 | 133 | 4.8 | 25.7 | 0.00 | 0.00 | 0.00 | 70 | 1017.3 |
| 20260502190851 | 25 | 93 | 16.1 | 25.7 | 0.00 | 0.00 | 0.00 | 70 | 1017.7 |
| 20260502190351 | 25 | 85 | 6.4 | 27.4 | 0.00 | 0.00 | 0.00 | 71 | 1017.6 |
| 20260502185852 | 25 | 121 | 12.9 | 27.4 | 0.00 | 0.00 | 0.00 | 71 | 1017.5 |
| 20260502185353 | 25 | 72 | 8.0 | 27.4 | 0.00 | 0.00 | 0.00 | 73 | 1017.5 |
| 20260502185124 | 25 | 84 | 17.7 | 25.7 | 0.00 | 0.00 | 0.00 | 74 | 1017.5 |
| 20260502184352 | 25 | 65 | 12.9 | 27.4 | 0.00 | 0.00 | 0.00 | 72 | 1017.7 |
| 20260502183852 | 25 | 93 | 6.4 | 30.6 | 0.00 | 0.00 | 0.00 | 72 | 1017.7 |
| 20260502183351 | 25 | 88 | 6.4 | 30.6 | 0.00 | 0.00 | 0.00 | 70 | 1017.5 |
| 20260502182852 | 25 | 94 | 12.9 | 32.2 | 0.00 | 0.00 | 0.00 | 71 | 1017.5 |
| 20260502182351 | 25 | 104 | 9.7 | 32.2 | 0.00 | 0.00 | 0.00 | 71 | 1017.5 |
| 20260502181851 | 25 | 76 | 14.5 | 27.4 | 0.00 | 0.00 | 0.00 | 72 | 1017.5 |
| 20260502181623 | 25 | 58 | 4.8 | 22.5 | 0.00 | 0.00 | 0.00 | 74 | 1017.6 |
| 20260502180851 | 25 | 119 | 11.3 | 25.7 | 0.00 | 0.00 | 0.00 | 73 | 1017.5 |
| 20260502180352 | 24 | 133 | 12.9 | 25.7 | 0.00 | 0.00 | 0.00 | 73 | 1017.6 |
| 20260502170339 | 23 | 107 | 11.3 | 24.1 | 0.00 | 0.00 | 0.00 | 74 | 1016.9 |
| 20260502164328 | 23 | 72 | 14.5 | 27.4 | 0.00 | 0.00 | 0.00 | 74 | 1016.6 |
| 20260502163827 | 22 | 78 | 12.9 | 24.1 | 0.00 | 0.00 | 0.00 | 76 | 1016.9 |
| 20260502163327 | 22 | 98 | 9.7 | 24.1 | 0.00 | 0.00 | 0.00 | 76 | 1016.8 |
| 20260502162828 | 22 | 101 | 9.7 | 24.1 | 0.00 | 0.00 | 0.00 | 78 | 1016.7 |
| 20260502162328 | 22 | 119 | 11.3 | 22.5 | 0.00 | 0.00 | 0.00 | 77 | 1016.7 |
| 20260502161827 | 22 | 81 | 11.3 | 25.7 | 0.00 | 0.00 | 0.00 | 77 | 1016.8 |
| 20260502161328 | 22 | 121 | 17.7 | 25.7 | 0.00 | 0.00 | 0.00 | 77 | 1016.6 |
| 20260502160815 | 22 | 140 | 8.0 | 27.4 | 0.00 | 0.00 | 0.00 | 77 | 1016.6 |
| 20260502160316 | 22 | 105 | 9.7 | 27.4 | 0.00 | 0.00 | 0.00 | 77 | 1016.7 |
| 20260502152253 | 22 | 91 | 11.3 | 24.1 | 0.00 | 0.00 | 0.00 | 78 | 1016.4 |
| 20260502152023 | 22 | 57 | 9.7 | 25.7 | 0.00 | 0.00 | 0.00 | 78 | 1016.4 |
| 20260502151252 | 22 | 108 | 4.8 | 25.7 | 0.00 | 0.00 | 0.00 | 78 | 1016.6 |
| 20260502150752 | 22 | 98 | 8.0 | 22.5 | 0.00 | 0.00 | 0.00 | 77 | 1016.3 |
| 20260502150251 | 22 | 88 | 9.7 | 20.9 | 0.00 | 0.00 | 0.00 | 78 | 1016.5 |
| 20260502130252 | 22 | 91 | 6.4 | 24.1 | 0.00 | 0.05 | 0.00 | 75 | 1016.7 |
| 20260502123240 | 22 | 127 | 8.0 | 25.7 | 0.00 | 0.05 | 0.00 | 77 | 1017.0 |
| 20260502122739 | 22 | 115 | 4.8 | 25.7 | 0.00 | 0.05 | 0.00 | 77 | 1017.0 |
| 20260502122240 | 22 | 40 | 8.0 | 24.1 | 0.00 | 0.05 | 0.00 | 77 | 1017.0 |
| 20260502121740 | 22 | 123 | 17.7 | 24.1 | 0.00 | 0.05 | 0.00 | 76 | 1017.1 |
| 20260502121511 | 22 | 67 | 16.1 | 24.1 | 0.00 | 0.05 | 0.00 | 76 | 1017.0 |
| 20260502120740 | 22 | 126 | 12.9 | 24.1 | 0.00 | 0.05 | 0.00 | 76 | 1017.3 |
| 20260502120240 | 22 | 102 | 16.1 | 22.5 | 0.00 | 0.05 | 0.00 | 76 | 1017.4 |
| 20260502115738 | 22 | 92 | 8.0 | 24.1 | 0.00 | 0.05 | 0.00 | 76 | 1017.5 |
| 20260502115239 | 22 | 80 | 9.7 | 24.1 | 0.00 | 0.05 | 0.00 | 75 | 1017.3 |
| 20260502114739 | 22 | 114 | 4.8 | 24.1 | 0.00 | 0.05 | 0.00 | 76 | 1017.3 |
| 20260502114238 | 22 | 125 | 6.4 | 25.7 | 0.00 | 0.05 | 0.00 | 77 | 1017.5 |
| 20260502113738 | 22 | 111 | 12.9 | 25.7 | 0.00 | 0.05 | 0.00 | 78 | 1017.7 |
| 20260502113510 | 22 | 145 | 8.0 | 22.5 | 0.00 | 0.05 | 0.00 | 79 | 1017.4 |
| 20260502112740 | 22 | 90 | 12.9 | 22.5 | 0.00 | 0.05 | 0.00 | 77 | 1017.4 |
| 20260502112238 | 22 | 86 | 12.9 | 22.5 | 0.00 | 0.05 | 0.00 | 76 | 1017.6 |
| 20260502111739 | 22 | 125 | 9.7 | 25.7 | 0.00 | 0.05 | 0.00 | 77 | 1017.7 |
| 20260502111240 | 22 | 124 | 12.9 | 25.7 | 0.00 | 0.05 | 0.00 | 77 | 1017.7 |
| 20260502110739 | 22 | 107 | 9.7 | 24.1 | 0.00 | 0.05 | 0.00 | 77 | 1017.6 |
| 20260502110238 | 22 | 100 | 12.9 | 24.1 | 0.00 | 0.05 | 0.00 | 80 | 1017.7 |
| 20260502105739 | 22 | 125 | 12.9 | 22.5 | 0.00 | 0.05 | 0.00 | 80 | 1017.8 |
| 20260502105238 | 22 | 92 | 11.3 | 24.1 | 0.00 | 0.05 | 0.00 | 80 | 1018.1 |
| 20260502105009 | 22 | 121 | 9.7 | 24.1 | 0.00 | 0.05 | 0.00 | 80 | 1018.2 |
| 20260502104240 | 22 | 110 | 4.8 | 30.6 | 0.00 | 0.05 | 0.00 | 79 | 1018.0 |
| 20260502103739 | 22 | 101 | 11.3 | 30.6 | 0.00 | 0.05 | 0.00 | 79 | 1017.9 |
| 20260502103510 | 22 | 90 | 8.0 | 20.9 | 0.00 | 0.05 | 0.00 | 80 | 1017.9 |
| 20260502102739 | 22 | 95 | 11.3 | 30.6 | 0.00 | 0.05 | 0.00 | 80 | 1018.1 |
| 20260502102240 | 22 | 89 | 14.5 | 30.6 | 0.00 | 0.05 | 0.00 | 79 | 1018.1 |
| 20260502101738 | 22 | 99 | 8.0 | 22.5 | 0.00 | 0.05 | 0.00 | 79 | 1018.1 |
| 20260502101509 | 22 | 89 | 8.0 | 25.7 | 0.00 | 0.05 | 0.00 | 78 | 1018.2 |
| 20260502100738 | 22 | 105 | 17.7 | 25.7 | 0.00 | 0.05 | 0.00 | 77 | 1018.3 |
| 20260502100509 | 23 | 98 | 8.0 | 30.6 | 0.00 | 0.05 | 0.00 | 78 | 1018.1 |
| 20260502091239 | 23 | 90 | 9.7 | 25.7 | 0.00 | 0.08 | 0.05 | 77 | 1018.6 |
| 20260502091009 | 23 | 82 | 6.4 | 27.4 | 0.00 | 0.08 | 0.05 | 77 | 1018.4 |
| 20260502090239 | 23 | 83 | 12.9 | 27.4 | 0.00 | 0.08 | 0.05 | 78 | 1018.5 |
| 20260502071153 | 23 | 91 | 14.5 | 24.1 | 0.00 | 0.08 | 0.05 | 75 | 1018.4 |
| 20260502070922 | 23 | 157 | 11.3 | 24.1 | 0.00 | 0.08 | 0.05 | 73 | 1018.6 |
| 20260502070151 | 23 | 86 | 9.7 | 27.4 | 0.00 | 0.08 | 0.05 | 75 | 1018.3 |
| 20260502065921 | 23 | 81 | 9.7 | 27.4 | 0.00 | 0.08 | 0.05 | 76 | 1018.4 |
| 20260502065151 | 23 | 86 | 8.0 | 24.1 | 0.00 | 0.08 | 0.05 | 77 | 1018.4 |
| 20260502064651 | 23 | 82 | 6.4 | 24.1 | 0.00 | 0.08 | 0.05 | 77 | 1018.4 |
| 20260502064151 | 23 | 104 | 11.3 | 22.5 | 0.00 | 0.08 | 0.05 | 77 | 1018.3 |
| 20260502063650 | 23 | 110 | 9.7 | 22.5 | 0.00 | 0.08 | 0.05 | 77 | 1018.1 |
| 20260502063421 | 23 | 66 | 12.9 | 22.5 | 0.00 | 0.08 | 0.05 | 77 | 1018.1 |
| 20260502062650 | 23 | 73 | 12.9 | 22.5 | 0.00 | 0.08 | 0.05 | 77 | 1018.1 |
| 20260502062150 | 23 | 94 | 9.7 | 24.1 | 0.00 | 0.08 | 0.05 | 77 | 1018.1 |
| 20260502061651 | 23 | 100 | 6.4 | 24.1 | 0.00 | 0.08 | 0.05 | 77 | 1018.0 |
| 20260502061424 | 23 | 109 | 11.3 | 25.7 | 0.00 | 0.08 | 0.05 | 76 | 1017.9 |
| 20260502060921 | 23 | 115 | 9.7 | 30.6 | 0.00 | 0.08 | 0.05 | 76 | 1017.9 |
| 20260502060138 | 23 | 106 | 17.7 | 30.6 | 0.00 | 0.08 | 0.05 | 76 | 1017.7 |
| 20260502055638 | 23 | 94 | 9.7 | 20.9 | 0.00 | 0.08 | 0.05 | 77 | 1017.8 |
| 20260502055138 | 23 | 34 | 6.4 | 27.4 | 0.00 | 0.08 | 0.05 | 76 | 1017.6 |
| 20260502054638 | 23 | 120 | 6.4 | 27.4 | 0.00 | 0.08 | 0.05 | 76 | 1017.7 |
| 20260502054138 | 23 | 108 | 6.4 | 32.2 | 0.00 | 0.08 | 0.05 | 78 | 1017.5 |
| 20260502053910 | 23 | 84 | 9.7 | 32.2 | 0.00 | 0.08 | 0.05 | 77 | 1017.4 |
| 20260502053140 | 23 | 84 | 9.7 | 24.1 | 0.00 | 0.08 | 0.05 | 77 | 1017.6 |
| 20260502052639 | 23 | 85 | 14.5 | 32.2 | 0.00 | 0.08 | 0.05 | 75 | 1017.4 |
| 20260502052139 | 23 | 88 | 6.4 | 32.2 | 0.00 | 0.08 | 0.05 | 76 | 1017.2 |
| 20260502051640 | 23 | 112 | 14.5 | 27.4 | 0.00 | 0.08 | 0.05 | 76 | 1017.3 |
| 20260502051410 | 23 | 84 | 14.5 | 27.4 | 0.00 | 0.08 | 0.05 | 76 | 1017.3 |
| 20260502050640 | 23 | 94 | 9.7 | 30.6 | 0.00 | 0.08 | 0.05 | 74 | 1017.2 |
| 20260502050138 | 23 | 52 | 12.9 | 30.6 | 0.00 | 0.08 | 0.05 | 74 | 1017.1 |
| 20260502045639 | 23 | 111 | 14.5 | 25.7 | 0.00 | 0.08 | 0.05 | 73 | 1016.9 |
| 20260502045139 | 23 | 99 | 12.9 | 25.7 | 0.00 | 0.08 | 0.05 | 74 | 1017.1 |
| 20260502044910 | 23 | 94 | 12.9 | 25.7 | 0.00 | 0.08 | 0.05 | 74 | 1016.8 |
| 20260502044409 | 23 | 97 | 12.9 | 25.7 | 0.00 | 0.08 | 0.05 | 75 | 1016.9 |
| 20260502043639 | 24 | 74 | 20.9 | 25.7 | 0.00 | 0.08 | 0.05 | 74 | 1016.9 |
| 20260502043138 | 24 | 122 | 8.0 | 24.1 | 0.00 | 0.08 | 0.05 | 75 | 1017.0 |
| 20260502042638 | 23 | 126 | 12.9 | 33.8 | 0.00 | 0.08 | 0.05 | 75 | 1016.9 |
| 20260502042139 | 24 | 51 | 22.5 | 33.8 | 0.00 | 0.08 | 0.05 | 75 | 1016.7 |
| 20260502041639 | 24 | 126 | 8.0 | 27.4 | 0.00 | 0.08 | 0.05 | 75 | 1016.7 |
| 20260502041140 | 24 | 75 | 4.8 | 30.6 | 0.00 | 0.08 | 0.05 | 75 | 1016.7 |
| 20260502040638 | 24 | 105 | 14.5 | 30.6 | 0.00 | 0.08 | 0.05 | 73 | 1016.3 |
| 20260502040138 | 24 | 96 | 12.9 | 25.7 | 0.00 | 0.08 | 0.05 | 74 | 1016.7 |
| 20260502035638 | 24 | 61 | 12.9 | 25.7 | 0.00 | 0.08 | 0.05 | 74 | 1016.7 |
| 20260502035138 | 24 | 113 | 16.1 | 27.4 | 0.00 | 0.08 | 0.05 | 74 | 1016.4 |
| 20260502034638 | 24 | 139 | 8.0 | 27.4 | 0.00 | 0.08 | 0.05 | 74 | 1016.6 |
| 20260502034139 | 24 | 109 | 12.9 | 33.8 | 0.00 | 0.08 | 0.05 | 72 | 1016.6 |
| 20260502033639 | 24 | 83 | 12.9 | 33.8 | 0.00 | 0.08 | 0.05 | 74 | 1016.5 |
| 20260502033138 | 24 | 112 | 9.7 | 32.2 | 0.00 | 0.08 | 0.05 | 75 | 1016.3 |
| 20260502032639 | 24 | 93 | 9.7 | 32.2 | 0.00 | 0.08 | 0.05 | 74 | 1016.2 |
| 20260502032138 | 25 | 82 | 12.9 | 27.4 | 0.00 | 0.08 | 0.05 | 73 | 1016.3 |
| 20260502031640 | 25 | 115 | 16.1 | 27.4 | 0.00 | 0.08 | 0.05 | 72 | 1016.2 |
| 20260502031409 | 24 | 71 | 20.9 | 25.7 | 0.00 | 0.08 | 0.05 | 73 | 1016.1 |